Salt Lake City, UT

8:31 AM MST on January 22, 2017 (GMT -0700)
Salt Lake City International

Weather History for KSLC - September, 2013

Change the Weather History Date:

Tuesday, September 10, 2013

  Actual Average Record
Temperature  
Mean Temperature 73 °F 69 °F  
Max Temperature 82 °F 82 °F 94 °F (1958)
Min Temperature 63 °F 55 °F 37 °F (1884)
Degree Days  
Heating Degree Days 0 1  
Month to date heating degree days 0 9  
Since 1 July heating degree days 0 14  
Cooling Degree Days 8 5  
Month to date cooling degree days 136 64  
Year to date cooling degree days 1682 1100  
Growing Degree Days 23 (Base 50)    
Moisture  
Dew Point 51 °F    
Average Humidity 52    
Maximum Humidity 73    
Minimum Humidity 31    
Precipitation  
Precipitation T in 0.03 in 1.15 in (1982)
Month to date precipitation 0.44 0.32  
Year to date precipitation 7.88 10.83  
Snow  
Snow 0.00 in 0.00 in - ()
Month to date snowfall 0.0 0.0  
Since 1 July snowfall 0.0 0.0  
Snow Depth 0.00 in    
Sea Level Pressure  
Sea Level Pressure 29.84 in    
Wind  
Wind Speed 4 mph (West)    
Max Wind Speed 13 mph    
Max Gust Speed 15 mph    
Visibility 10 miles    
Events Rain    
T = Trace of Precipitation, MM = Missing Value Source: NWS Daily Summary

Daily Weather History Graph

Daily Weather History Graph

Search for Another Location

Airport or City:

Trip Planner

Search our weather history database for the weather conditions in past years. The results will help you decide how hot, cold, wet, or windy it might be!

Date:

Astronomy

Sep. 10, 2013 Rise Set
Actual Time 7:03 AM MDT 7:44 PM MDT
Civil Twilight 6:36 AM MDT 8:12 PM MDT
Nautical Twilight 6:03 AM MDT 8:45 PM MDT
Astronomical Twilight 5:29 AM MDT 9:18 PM MDT
Moon 12:35 PM MDT (9/10) 10:48 PM MDT (9/10)
Length of Visible Light 13h 36m
Length of Day
12h 40m
Waxing Crescent, 29% of the Moon is Illuminated
Sep 10
Waxing Crescent
Sep 12
First Quarter
Sep 19
Full
Sep 26
Last Quarter
Oct 4
New

Hourly Weather History & Observations

Time (MDT) Temp. Dew Point Humidity Pressure Visibility Wind Dir Wind Speed Gust Speed Precip Events Conditions
12:53 AM 66.9 °F 50.0 °F 54% 29.82 in 10.0 mi SSE 4.6 mph - N/A   Scattered Clouds
1:53 AM 64.0 °F 51.1 °F 63% 29.83 in 10.0 mi Calm Calm - N/A   Scattered Clouds
2:53 AM 66.0 °F 52.0 °F 60% 29.81 in 10.0 mi NNW 3.5 mph - N/A   Mostly Cloudy
3:53 AM 64.0 °F 55.9 °F 75% 29.82 in 10.0 mi WSW 4.6 mph - N/A   Mostly Cloudy
4:53 AM 64.9 °F 54.0 °F 68% 29.81 in 10.0 mi SW 4.6 mph - 0.00 in   Overcast
5:53 AM 64.9 °F 52.0 °F 63% 29.82 in 10.0 mi West 3.5 mph - N/A   Overcast
6:53 AM 66.0 °F 52.0 °F 60% 29.83 in 10.0 mi Calm Calm - N/A   Overcast
7:53 AM 66.0 °F 51.1 °F 59% 29.86 in 10.0 mi Calm Calm - N/A   Mostly Cloudy
8:53 AM 66.9 °F 50.0 °F 54% 29.87 in 10.0 mi WNW 4.6 mph - N/A   Mostly Cloudy
9:53 AM 69.1 °F 51.1 °F 53% 29.88 in 10.0 mi SSW 3.5 mph - N/A   Mostly Cloudy
10:53 AM 73.0 °F 51.1 °F 46% 29.88 in 10.0 mi WNW 4.6 mph - N/A   Mostly Cloudy
11:53 AM 75.9 °F 50.0 °F 40% 29.87 in 10.0 mi West 4.6 mph - N/A   Mostly Cloudy
12:53 PM 77.0 °F 48.9 °F 37% 29.86 in 10.0 mi NW 3.5 mph - N/A   Mostly Cloudy
1:53 PM 79.0 °F 48.9 °F 35% 29.86 in 10.0 mi Calm Calm - N/A   Mostly Cloudy
2:53 PM 80.1 °F 48.0 °F 32% 29.83 in 10.0 mi West 5.8 mph - N/A   Mostly Cloudy
3:53 PM 80.1 °F 50.0 °F 35% 29.83 in 10.0 mi NW 11.5 mph - N/A   Mostly Cloudy
4:53 PM 80.1 °F 50.0 °F 35% 29.81 in 10.0 mi WNW 9.2 mph - N/A   Mostly Cloudy
5:53 PM 79.0 °F 51.1 °F 38% 29.82 in 10.0 mi West 8.1 mph - N/A   Mostly Cloudy
6:53 PM 78.1 °F 51.1 °F 39% 29.82 in 10.0 mi West 5.8 mph - 0.00 in Rain Light Rain
7:53 PM 77.0 °F 51.1 °F 40% 29.83 in 10.0 mi WSW 3.5 mph - N/A   Mostly Cloudy
8:53 PM 73.9 °F 53.1 °F 48% 29.85 in 10.0 mi West 3.5 mph - N/A   Mostly Cloudy
9:53 PM 75.0 °F 52.0 °F 44% 29.85 in 10.0 mi SE 3.5 mph - N/A   Mostly Cloudy
10:53 PM 75.9 °F 51.1 °F 42% 29.85 in 10.0 mi ESE 13.8 mph - N/A   Mostly Cloudy
11:53 PM 73.9 °F 52.0 °F 46% 29.86 in 10.0 mi SE 9.2 mph - N/A   Mostly Cloudy